Temperature
12 10 10 11 11 12 12 12 12 13 12 12 12 12 12 12 12 12 12 12 11 11 10 10 10 10 10 10 10 10 10 10 10 10 10 10 10 10 10 10 9 9 9 9
10 9 11 12 12 12 12 11 11 11 12 12 11 11 12 12 11 12 12 11 11 10 10 10 9 9 9 9 9 9 10 10 10 10 10 9 9 9 9 9 9 9 9 9
10 10 11 11 11 11 11 10 11 10 11 11 11 10 11 11 12 12 11 11 10 10 9 9 9 8 8 9 9 9 9 9 9 9 9 9 8 8 8 8 8 8 8 8
9 10 10 10 10 10 10 11 10 10 9 8 10 8 10 11 10 11 11 11 10 9 9 8 8 8 8 8 8 8 8 8 8 8 8 8 8 8 8 8 8 8 8 8
9 9 9 9 9 10 9 10 10 9 9 8 9 8 9 11 10 10 10 10 9 9 8 8 7 7 7 7 7 8 8 8 8 8 8 8 7 7 7 7 7 7 7 7
8 9 9 9 9 9 9 9 9 9 8 6 8 8 8 9 10 10 10 9 9 8 7 7 7 7 7 7 7 7 7 7 7 7 7 7 7 7 7 7 7 7 7 6
8 8 8 8 8 8 8 7 6 6 6 7 9 8 8 10 10 10 9 9 8 8 7 6 6 6 6 6 6 6 6 6 6 6 6 6 6 6 6 6 6 6 6 6
7 6 7 7 7 7 7 7 6 6 7 8 8 8 9 10 10 10 10 9 8 7 7 6 6 6 6 6 5 6 6 6 6 6 6 6 6 6 6 5 5 5 5 5
7 7 7 7 8 7 7 7 8 7 6 6 7 9 9 9 9 8 9 8 7 7 6 6 5 5 5 5 5 5 5 5 5 5 5 5 5 5 5 5 5 5 5 5
6 5 6 7 7 7 7 7 6 5 5 6 8 8 8 7 7 7 7 7 7 7 6 5 5 5 5 5 5 4 4 5 5 4 4 4 4 4 4 4 4 4 4 4
6 4 5 5 5 5 6 6 6 5 5 6 7 8 8 7 7 7 7 7 7 6 6 5 5 5 4 4 4 4 4 4 4 4 4 4 4 4 4 4 4 4 3 3
5 4 4 5 5 6 5 6 5 4 4 5 5 6 7 7 7 7 7 7 6 5 5 5 4 4 4 4 4 3 3 3 3 3 3 3 3 3 3 3 3 3 3 3
4 3 3 4 4 4 4 4 4 4 4 4 4 6 6 6 6 6 6 6 5 5 4 4 4 4 3 3 3 3 3 3 3 3 3 3 3 2 2 2 2 2 2 2
4 2 3 4 4 3 3 3 3 3 2 3 4 5 5 5 5 5 5 5 5 4 4 3 3 3 3 2 2 2 2 2 2 2 2 2 2 2 2 2 2 2 2 2
3 1 1 2 3 4 3 3 3 2 3 3 4 5 5 5 4 5 5 4 4 3 3 3 3 2 2 2 2 2 2 2 2 2 2 1 1 1 1 1 1 1 1 1
1 1 1 2 3 3 2 3 3 3 3 3 3 4 5 5 5 5 4 4 3 3 3 2 2 2 2 2 2 1 1 1 1 1 1 1 1 1 1 1 1 1 1 1
0 0 1 2 2 2 1 2 2 2 2 3 3 4 4 4 4 4 4 3 3 3 2 2 2 2 2 1 1 1 1 1 1 1 1 0 0 0 0 0 0 0 0 0
-0 -0 0 1 1 1 3 3 3 3 3 3 3 3 3 3 3 3 3 3 2 2 2 2 2 1 1 1 1 1 0 0 0 0 0 0 -0 -0 -0 -0 -0 -0 -0 -0
0 0 0 0 1 2 3 2 2 2 2 2 2 2 2 3 2 2 2 2 2 2 1 1 1 1 1 1 0 0 -0 -0 -0 -0 -0 -0 -1 -1 -1 -1 -1 -1 -1 -1
-0 -1 -0 0 0 1 3 2 2 2 1 2 2 1 2 1 0 1 2 2 1 1 1 1 1 0 0 -0 -0 -0 -0 -1 -1 -1 -1 -1 -1 -1 -1 -1 -1 -1 -2 -2
-1 -1 -1 -0 -0 1 1 1 2 1 1 2 2 1 1 1 0 1 1 1 1 0 0 0 -0 -0 -0 -1 -1 -1 -1 -1 -1 -1 -1 -1 -1 -2 -2 -2 -2 -2 -2 -2
-1 -1 -1 -1 -1 0 -0 0 0 0 1 1 1 1 1 1 1 0 0 -0 -0 -0 -1 -1 -1 -1 -1 -1 -1 -1 -1 -1 -2 -2 -2 -2 -2 -2 -2 -2 -2 -2 -3 -3
-1 -1 -1 -1 -0 0 0 0 1 1 1 1 0 0 0 -0 -0 -0 -1 -1 -1 -1 -1 -1 -1 -1 -1 -1 -2 -2 -2 -2 -2 -2 -2 -2 -2 -2 -3 -3 -3 -3 -3 -3
-1 -1 -1 -1 -1 -0 0 0 0 0 -0 -0 -0 -0 -0 -1 -1 -1 -1 -1 -1 -1 -1 -2 -2 -2 -2 -2 -2 -2 -2 -2 -3 -3 -3 -3 -3 -3 -3 -3 -3 -3 -3 -4
-1 -2 -2 -2 -2 -1 -0 -0 -0 -0 -1 -1 -1 -1 -1 -1 -2 -2 -2 -2 -2 -2 -2 -2 -2 -2 -2 -3 -3 -3 -3 -3 -3 -3 -3 -3 -3 -3 -3 -4 -4 -4 -4 -4
-2 -2 -2 -2 -1 -2 -1 -0 -0 -1 -1 -1 -1 -2 -2 -2 -2 -2 -2 -2 -2 -2 -2 -3 -3 -3 -3 -3 -3 -3 -3 -3 -3 -3 -4 -4 -4 -4 -4 -4 -4 -4 -4 -5
Wind_Speed
3 3 4 5 6 6 6 6 6 4 1 4 7 8 6 4 4 4 3 3 2 2 2 4 4 4 4 4 4 4 4 3 3 3 2 2 1 1 2 3 4 3 3 3
2 5 5 4 4 6 7 7 6 3 1 4 6 8 6 6 5 5 4 4 4 3 3 3 4 3 3 3 3 3 3 3 3 2 2 2 2 1 1 2 3 3 3 3
5 1 2 5 4 6 6 5 5 4 4 5 5 7 6 5 5 5 4 4 4 4 4 4 4 3 3 2 2 2 2 3 3 3 3 2 2 2 2 1 1 1 2 2
3 2 4 4 5 5 6 3 4 3 3 4 4 5 6 7 7 7 6 5 4 4 4 4 4 3 3 2 2 2 2 2 2 3 3 3 2 2 1 1 1 1 1 1
2 1 3 4 4 4 2 2 3 4 4 5 5 5 5 5 6 7 6 5 5 5 4 4 3 3 3 3 3 2 2 2 2 2 2 3 2 1 1 1 1 1 1 1
3 2 2 2 2 2 1 1 2 3 2 6 8 7 5 5 7 6 7 6 5 5 5 4 4 4 3 3 3 2 2 2 2 2 1 2 2 2 2 1 1 1 1 0
3 4 2 1 1 2 2 1 0 2 4 6 5 6 6 3 2 4 6 7 6 5 5 5 5 4 3 3 3 2 2 1 2 2 1 1 1 2 2 2 2 1 1 0
4 4 5 3 3 3 5 4 3 4 4 3 4 7 3 3 2 3 4 6 6 6 5 5 4 4 3 3 3 2 2 1 1 1 1 1 1 1 1 1 1 1 1 0
3 3 2 2 2 2 3 5 3 2 3 4 5 4 2 3 3 2 3 5 6 6 5 5 4 4 3 3 2 2 2 1 1 1 1 1 1 1 0 0 0 0 0 0
1 2 3 3 3 4 3 2 2 3 3 5 6 7 5 5 5 4 4 4 5 5 5 4 4 4 3 2 2 2 2 1 1 1 1 2 1 1 1 0 0 0 0 0
1 2 3 3 6 6 5 4 3 3 4 3 5 3 1 3 4 4 3 3 4 4 4 3 3 3 3 3 3 2 2 1 1 2 2 2 1 2 2 1 0 1 1 0
1 1 3 5 2 2 4 5 5 4 5 4 5 5 1 2 2 3 2 2 3 3 3 3 3 3 3 3 3 2 2 1 1 1 1 1 1 1 1 1 1 1 1 1
2 2 1 2 2 2 4 5 5 3 2 5 6 5 0 3 3 2 2 2 2 3 3 3 3 3 3 2 2 2 1 1 1 1 1 1 1 1 1 1 2 1 1 1
1 3 6 6 3 2 5 6 6 6 5 7 9 8 5 2 1 1 1 1 2 2 2 2 2 2 2 2 2 1 1 1 1 1 0 0 1 1 1 2 2 1 1 1
2 4 6 8 8 6 7 9 10 11 10 10 10 10 9 6 4 3 3 2 2 2 2 2 2 2 2 2 1 1 1 1 1 0 0 0 0 1 1 2 2 2 2 2
1 3 3 7 8 7 9 11 13 13 13 13 14 14 8 6 3 3 4 5 4 4 3 3 3 3 2 2 2 1 1 0 0 0 1 0 0 1 1 1 1 1 2 2
3 3 3 5 4 4 9 12 14 10 10 11 15 13 6 6 6 5 5 5 4 4 3 3 3 3 3 2 2 2 2 1 1 1 1 0 0 0 1 1 1 1 2 2
5 4 3 4 3 9 8 3 7 10 11 11 9 6 5 6 4 2 3 4 3 2 2 2 2 2 2 2 2 2 2 1 1 1 1 0 0 1 1 1 1 2 1 2
6 5 4 4 6 9 6 4 4 6 9 7 8 7 4 1 0 2 2 2 2 2 2 2 1 1 1 1 2 2 1 1 1 1 1 0 0 1 1 2 2 2 2 2
4 4 4 5 6 7 5 2 1 1 7 4 5 6 5 2 2 4 1 1 1 1 1 1 1 1 1 1 2 2 1 1 1 1 1 1 1 1 2 2 2 2 2 2
4 5 7 7 7 7 3 1 2 4 6 3 2 3 3 4 4 2 0 1 1 1 1 1 1 1 1 2 2 2 1 2 2 1 1 1 1 1 2 1 2 2 2 3
6 6 7 6 7 8 1 1 4 5 3 2 1 2 2 2 1 0 1 1 1 1 2 2 1 0 0 2 2 2 2 1 1 1 1 1 1 1 1 1 1 1 2 2
6 6 4 6 7 3 3 4 4 2 3 2 1 1 1 1 1 0 0 1 1 2 2 1 1 1 0 1 2 2 2 1 1 1 1 1 1 1 1 1 2 2 2 2
4 3 4 5 7 5 4 4 3 2 2 2 0 0 1 1 1 1 1 1 1 1 2 1 1 1 1 1 1 1 1 1 1 1 1 1 1 1 1 1 2 2 2 2
4 3 4 6 6 5 5 4 4 3 1 1 1 1 1 1 2 2 2 1 1 1 1 1 2 2 2 1 1 1 1 1 1 1 1 2 2 2 2 2 2 3 3 3
5 6 6 7 5 4 4 3 2 2 2 2 2 2 1 2 2 2 2 2 1 1 1 1 1 1 1 1 1 1 1 1 1 2 2 2 2 2 2 2 3 3 4 6
Wind_Direction
186 212 215 214 226 260 273 267 268 277 294 256 245 244 229 219 233 236 214 182 181 161 121 111 113 113 108 115 128 131 127 119 114 111 114 109 97 64 61 62 54 52 52 43
199 235 248 260 252 259 264 268 271 296 304 272 270 259 239 222 220 224 214 200 185 161 138 120 116 117 116 120 117 122 132 134 131 131 132 130 127 121 93 68 60 51 47 37
226 261 260 249 254 249 250 258 269 281 303 272 286 276 234 222 211 214 218 207 185 169 158 143 127 120 120 121 131 129 126 128 126 125 121 106 99 89 86 81 80 54 49 47
245 269 261 248 249 253 249 261 272 272 266 259 221 273 238 207 211 208 203 199 181 161 138 133 131 130 128 122 100 97 103 102 111 125 132 138 142 161 187 168 150 99 78 54
244 276 259 241 258 265 269 303 267 259 259 276 236 248 264 197 217 211 195 181 161 151 145 135 125 122 113 106 96 91 95 98 91 109 137 146 153 167 150 126 125 133 115 92
258 272 292 285 295 272 271 293 281 260 256 256 221 219 263 210 214 197 183 173 160 149 145 138 124 111 102 94 91 85 81 89 86 80 89 142 163 159 141 140 164 190 179 220
227 221 212 248 213 220 215 150 185 224 226 242 203 214 240 218 175 166 168 168 159 149 150 144 131 128 125 119 110 104 101 82 84 89 80 91 161 161 174 187 185 190 203 216
218 230 197 207 209 210 212 203 195 219 235 254 217 224 226 149 104 101 134 150 151 152 146 137 137 137 133 127 128 128 118 112 100 93 85 73 74 129 183 203 200 192 204 208
236 233 166 205 244 224 210 224 254 280 281 279 244 229 229 157 139 133 133 139 152 152 139 134 135 132 130 130 134 130 122 112 96 77 69 61 50 46 52 359 5 73 233 321
290 259 209 192 228 232 238 245 178 200 228 252 250 233 223 193 191 181 170 168 165 151 141 138 139 135 125 121 112 102 104 107 94 75 61 50 31 12 358 321 6 314 299 344
296 213 208 198 208 209 202 215 214 219 239 237 262 255 1 153 163 163 165 165 151 146 142 139 134 120 111 104 111 112 111 92 76 65 54 50 29 20 13 6 15 355 325 291
208 222 233 231 226 254 228 217 194 206 245 239 261 266 337 81 118 141 139 126 121 125 125 127 122 115 108 102 105 116 114 103 87 72 55 34 33 32 20 1 348 333 334 331
155 173 238 245 245 230 237 231 222 229 253 241 241 253 357 85 89 103 126 125 123 122 109 115 116 115 115 114 105 94 91 108 104 88 68 34 21 24 7 343 332 326 329 324
187 206 222 234 247 210 237 235 219 208 224 247 244 257 259 244 233 230 199 157 132 129 124 137 139 134 128 124 118 105 87 85 86 102 86 17 13 19 358 342 333 334 330 321
168 229 244 264 275 259 248 239 224 223 228 236 256 259 258 248 225 213 200 197 188 184 171 170 169 159 147 138 127 124 129 101 71 59 211 193 23 32 6 335 336 349 341 321
185 229 253 264 257 250 256 243 233 235 239 246 261 267 259 254 228 214 206 203 211 210 198 192 181 172 175 169 165 163 177 198 142 229 230 172 64 6 332 329 345 343 331 316
193 203 231 256 260 287 258 232 223 228 229 228 244 251 250 247 231 220 217 206 209 217 207 205 196 187 187 181 173 181 206 216 201 216 230 199 200 278 292 311 328 308 304 311
196 204 225 260 269 247 246 228 211 228 242 233 244 255 247 237 232 231 213 196 200 215 218 213 202 198 183 168 157 165 185 176 179 202 233 237 232 275 303 305 298 294 298 299
208 202 225 230 248 264 254 234 210 223 259 236 235 246 246 230 351 264 206 160 191 218 221 212 211 193 152 145 137 131 151 149 159 202 236 254 219 270 286 288 289 298 304 299
208 206 221 228 243 252 253 233 243 202 266 252 231 237 227 168 227 248 213 135 188 200 177 189 186 159 156 150 135 139 167 175 201 223 239 249 237 234 260 275 291 302 300 294
191 207 223 235 246 262 262 237 144 202 256 293 241 229 210 210 221 231 121 103 144 149 156 145 138 146 162 144 142 167 191 223 225 228 247 255 255 243 252 268 286 298 302 303
193 198 209 213 234 253 235 165 208 245 299 315 265 229 218 207 183 192 149 144 130 120 118 119 126 172 164 145 147 179 225 239 202 198 239 266 272 267 273 259 273 276 281 292
212 211 209 210 225 250 210 241 260 285 284 296 272 260 190 197 204 212 226 200 165 153 147 137 147 190 192 157 161 200 238 194 173 189 232 261 281 283 269 257 268 275 269 274
237 232 235 256 259 253 244 257 271 269 259 279 206 164 128 187 220 240 260 249 215 162 146 141 149 183 222 209 214 226 224 180 186 221 246 253 253 261 267 270 266 263 264 272
235 205 239 261 271 279 264 258 263 273 282 295 311 242 191 195 236 246 261 253 230 207 158 160 181 199 224 222 244 252 200 174 219 266 273 277 265 256 266 269 263 265 258 260
225 219 224 248 252 243 265 274 269 247 246 246 245 268 254 217 231 245 246 244 222 206 189 188 193 201 223 219 252 257 224 197 211 251 270 275 273 266 261 273 292 283 270 277
Height
1489 1492 1493 1491 1490 1489 1488 1489 1489 1488 1488 1490 1490 1489 1488 1489 1490 1490 1491 1492 1493 1494 1496 1496 1497 1497 1498 1500 1501 1502 1503 1504 1505 1506 1507 1508 1509 1510 1510 1511 1512 1513 1513 1513
1490 1491 1489 1487 1487 1488 1488 1490 1490 1490 1489 1490 1489 1487 1485 1486 1486 1487 1488 1490 1491 1492 1493 1494 1495 1495 1496 1498 1499 1500 1501 1502 1503 1504 1505 1506 1507 1507 1508 1509 1510 1510 1511 1511
1488 1488 1487 1487 1487 1488 1489 1491 1491 1492 1491 1489 1490 1488 1483 1482 1483 1485 1486 1487 1488 1489 1490 1492 1493 1493 1495 1496 1497 1498 1499 1500 1501 1502 1503 1504 1504 1505 1506 1506 1507 1508 1508 1509
1487 1487 1487 1487 1488 1488 1491 1489 1490 1492 1496 1497 1492 1497 1481 1479 1480 1481 1482 1484 1485 1487 1488 1490 1491 1492 1493 1494 1495 1496 1497 1497 1499 1499 1500 1500 1501 1502 1503 1503 1504 1505 1506 1506
1487 1487 1487 1488 1488 1488 1490 1488 1490 1492 1494 1497 1492 1497 1485 1476 1478 1478 1478 1481 1483 1485 1486 1487 1488 1489 1491 1492 1493 1493 1494 1495 1496 1496 1497 1498 1498 1499 1500 1501 1501 1502 1503 1503
1488 1488 1488 1488 1488 1489 1489 1490 1491 1492 1496 1503 1490 1493 1484 1476 1472 1472 1475 1478 1480 1483 1484 1486 1487 1488 1488 1489 1490 1491 1492 1492 1493 1494 1495 1495 1496 1496 1497 1497 1498 1499 1499 1500
1488 1487 1487 1488 1490 1490 1491 1497 1503 1503 1505 1497 1481 1485 1479 1469 1466 1468 1471 1475 1478 1480 1482 1484 1485 1485 1486 1487 1487 1488 1489 1490 1491 1491 1492 1492 1493 1493 1494 1494 1495 1495 1496 1496
1489 1490 1486 1487 1489 1491 1491 1493 1501 1502 1496 1486 1481 1482 1472 1466 1466 1467 1469 1472 1475 1478 1480 1481 1483 1484 1484 1485 1485 1486 1486 1487 1488 1488 1489 1490 1490 1491 1491 1492 1492 1492 1492 1492
1487 1487 1485 1486 1487 1489 1490 1491 1489 1494 1494 1495 1482 1472 1469 1466 1467 1468 1469 1471 1473 1476 1478 1479 1481 1482 1482 1483 1483 1484 1484 1484 1485 1486 1486 1487 1487 1488 1488 1488 1489 1489 1489 1489
1486 1491 1486 1486 1487 1487 1489 1488 1493 1497 1497 1491 1475 1470 1470 1468 1468 1468 1469 1470 1472 1475 1476 1478 1479 1480 1480 1481 1481 1482 1482 1483 1483 1483 1483 1484 1484 1484 1485 1485 1486 1486 1486 1486
1487 1492 1489 1488 1488 1487 1489 1490 1490 1492 1490 1490 1482 1473 1464 1464 1464 1466 1468 1469 1471 1473 1475 1476 1477 1478 1479 1479 1479 1480 1480 1480 1481 1481 1481 1481 1481 1481 1482 1482 1482 1483 1483 1483
1487 1490 1491 1487 1484 1484 1485 1485 1489 1496 1493 1487 1485 1477 1463 1463 1464 1465 1467 1469 1471 1473 1474 1475 1475 1476 1477 1477 1477 1478 1478 1478 1479 1479 1479 1479 1479 1479 1479 1479 1479 1480 1480 1480
1487 1491 1493 1489 1490 1488 1487 1484 1486 1489 1491 1489 1486 1476 1464 1464 1465 1466 1467 1468 1470 1471 1473 1473 1474 1474 1475 1475 1475 1476 1476 1476 1476 1477 1477 1477 1477 1477 1476 1476 1476 1476 1477 1476
1484 1489 1490 1485 1481 1483 1486 1485 1485 1488 1492 1487 1478 1471 1467 1466 1466 1467 1467 1468 1469 1470 1471 1472 1472 1472 1473 1473 1473 1473 1474 1474 1474 1474 1474 1474 1474 1474 1474 1474 1473 1473 1473 1473
1484 1487 1486 1483 1479 1479 1480 1481 1482 1484 1481 1482 1472 1468 1464 1464 1465 1465 1466 1467 1467 1468 1469 1470 1470 1470 1470 1470 1471 1471 1471 1471 1471 1471 1472 1472 1472 1472 1471 1471 1470 1470 1470 1470
1483 1485 1485 1482 1477 1476 1477 1474 1474 1475 1474 1472 1469 1465 1460 1460 1462 1463 1464 1465 1465 1466 1467 1467 1468 1468 1468 1468 1468 1468 1469 1469 1469 1469 1469 1469 1469 1469 1469 1468 1468 1468 1467 1467
1484 1485 1484 1479 1475 1476 1475 1466 1466 1467 1464 1465 1464 1458 1457 1458 1458 1459 1460 1461 1462 1463 1464 1464 1464 1465 1465 1465 1465 1466 1466 1466 1466 1466 1466 1466 1466 1466 1466 1466 1465 1465 1465 1464
1481 1482 1482 1479 1479 1479 1461 1455 1455 1458 1456 1457 1455 1454 1454 1454 1454 1456 1457 1458 1459 1460 1460 1461 1461 1461 1462 1462 1462 1463 1463 1463 1463 1463 1463 1463 1463 1463 1463 1463 1463 1462 1462 1461
1475 1478 1478 1478 1475 1464 1455 1453 1453 1456 1453 1451 1451 1451 1451 1451 1452 1453 1453 1455 1456 1457 1457 1458 1458 1458 1459 1459 1459 1460 1460 1460 1460 1460 1460 1460 1460 1460 1460 1460 1460 1459 1459 1458
1473 1475 1478 1474 1472 1465 1453 1451 1449 1453 1453 1447 1447 1447 1448 1449 1453 1451 1450 1451 1452 1453 1454 1454 1454 1455 1456 1456 1456 1457 1456 1457 1457 1457 1458 1458 1458 1458 1458 1458 1457 1457 1456 1455
1475 1475 1475 1472 1469 1458 1452 1450 1450 1456 1451 1445 1444 1444 1445 1446 1448 1448 1448 1448 1449 1450 1450 1451 1451 1452 1452 1453 1453 1453 1454 1454 1454 1455 1455 1455 1455 1455 1455 1455 1454 1454 1453 1453
1467 1469 1470 1468 1467 1460 1451 1450 1451 1449 1445 1444 1443 1443 1444 1444 1445 1445 1446 1446 1447 1447 1448 1448 1449 1449 1450 1450 1451 1450 1451 1451 1452 1452 1452 1452 1452 1452 1452 1452 1452 1451 1451 1450
1459 1458 1457 1457 1455 1449 1448 1447 1446 1445 1444 1443 1442 1442 1443 1443 1443 1444 1444 1444 1445 1445 1446 1446 1446 1447 1447 1448 1448 1448 1448 1449 1449 1449 1449 1449 1450 1450 1450 1449 1449 1448 1448 1447
1454 1452 1452 1452 1447 1445 1444 1443 1443 1443 1442 1442 1441 1441 1441 1441 1442 1442 1442 1442 1443 1443 1443 1444 1444 1444 1445 1445 1445 1446 1446 1446 1446 1446 1446 1447 1447 1446 1446 1446 1446 1445 1445 1444
1449 1450 1450 1449 1445 1443 1441 1440 1440 1440 1440 1439 1439 1440 1440 1440 1440 1440 1440 1440 1440 1441 1441 1441 1441 1441 1442 1442 1443 1443 1443 1443 1443 1443 1444 1444 1444 1443 1443 1443 1443 1442 1442 1442
1444 1446 1447 1443 1440 1440 1438 1438 1437 1437 1437 1437 1437 1437 1437 1438 1437 1438 1438 1438 1438 1438 1439 1439 1439 1439 1439 1440 1440 1440 1441 1441 1441 1440 1440 1441 1441 1440 1440 1440 1439 1439 1439 1438